sat.trackr.live / text

‹ back to catalog

ORBCOMM FM109

NORAD 40086 · 2014-040A

PAYLOAD ACTIVE UNKNOWN

§ Identity

Operator
Country
ORB
Launch date
2014-07-14
Launch site
AFETR
Launch vehicle
Mass (kg)
RCS (m²)
0.44

Purposes: comms

External: N2YO · Heavens-Above · Gunter

§ Orbital elements

Epoch: 2026-09-19T19:32:10.224672Z

Period
98.70 min
Inclination
47.0047°
Eccentricity
0.0002153
Mean motion
14.58921695 rev/d
Perigee alt
695.1 km
Apogee alt
698.2 km
Semi-major
7,074.8 km
B*
7.8402e-5
RAAN
4.0705°
Arg perigee
277.9096°
Mean anomaly
82.1545°
Rev number
64,816

§ Raw data

ORBCOMM FM1091 40086U 14040A   26262.81400723  .00000200  00000+0  78402-4 0  99962 40086  47.0047   4.0705 0002153 277.9096  82.1545 14.58921695648169

JSON: /api/v1/satellites/40086 · /tle

For live sub-satellite position, see the globe view (requires WebGL).

§ Visibility from observer

Set your observer location to see the next 7 days of passes ≥ 10°. The values pass through the URL so the page stays shareable.

No JS? Fill the form by hand. The geolocation button needs JavaScript.

§ Radio — SatNOGS DB

ModeDescriptionDownlinkUplink
FM Telemetry 137.250 MHz

1 transmitter · refreshed weekly from db.satnogs.org